Location: CAO
(44.5093°N, 80.3921°W)
Time: 08:32:50
(UTC-05:00)

ARIANE 6 FM1 Upper Stage - Visible Passes

Search period start: 21 January 2026 00:00
Search period end: 31 January 2026 00:00
Orbit: 522 x 610 km, 62.0° (Epoch: 20 January)

Date Brightness Start Highest point End Pass type
(mag) Time Alt. Az. Time Alt. Az. Time Alt. Az.
21 Jan 3.1 18:58:06 10° SSW 19:01:55 39° ESE 19:01:59 39° ESE visible
21 Jan 5.7 20:37:32 10° W 20:38:02 13° W 20:38:02 13° W visible
22 Jan 2.6 18:58:00 10° SSW 19:02:01 59° SE 19:02:49 48° ENE visible
22 Jan 5.7 20:38:13 10° W 20:38:53 13° W 20:38:53 13° W visible
23 Jan 2.5 18:58:03 10° SW 19:02:09 88° SE 19:03:35 39° NE visible
23 Jan 5.7 20:39:02 10° WNW 20:39:38 12° WNW 20:39:38 12° WNW visible
24 Jan 2.9 18:58:15 10° SW 19:02:17 64° NW 19:04:14 28° NNE visible
24 Jan 5.8 20:40:02 10° WNW 20:40:17 11° NW 20:40:17 11° NW visible
25 Jan 3.5 18:58:34 10° WSW 19:02:29 44° NW 19:04:48 21° NNE visible
26 Jan 4.1 18:59:00 10° WSW 19:02:41 32° NW 19:05:18 16° NNE visible
27 Jan 4.5 18:59:34 10° W 19:02:56 24° NW 19:05:42 13° NNE visible
28 Jan 4.8 19:00:15 10° W 19:03:12 19° NW 19:06:03 10° NNE visible
29 Jan 5.1 19:01:05 10° WNW 19:03:30 15° NNW 19:05:53 10° N visible
30 Jan 5.1 19:02:07 10° NW 19:03:49 12° NNW 19:05:32 10° N visible
